Regional Weather Roundup
Issued by NWS

Home | Current Version | Previous Version | Graphics & Text | Print | Product List | Glossary On
Versions: 1 2 3 4 5 6 7 8 9 10 11 12 13 14 15 16 17 18 19 20 21 22 23 24 25 26 27 28 29 30 31 32 33 34 35 36 37 38 39 40 41 42 43 44 45 46 47 48 49 50
000
ASUS45 KCYS 251410
RWRWY

WYOMING REGIONAL WEATHER ROUNDUP
NATIONAL WEATHER SERVICE CHEYENNE WY
700 AM MST TUE NOV 25 2014

NOTE:  "FAIR" INDICATES FEW OR NO CLOUDS BELOW 12,000 FEET
WITH NO SIGNIFICANT WEATHER AND/OR OBSTRUCTIONS TO VISIBILITY.

WYZ001-251500-
YELLOWSTONE NATIONAL PARK

CITY           SKY/WX    TMP DP  RH WIND       PRES   REMARKS
LK YELLOWSTONE   N/A     21  17  84 VRB7      30.00S WCI  12
W YELLOWSTONE  NOT AVBL

$$
WYZ002>013-054>058-071-098>099-251500-
NORTHERN WYOMING

CITY           SKY/WX    TMP DP  RH WIND       PRES   REMARKS
JACKSON        LGT SNOW  27  25  93 S16       30.09S BLWGSNOWWCI  14
CODY           CLOUDY    36  23  60 W23G39    29.81S WCI  24
GREYBULL       LGT SNOW  26  26 100 SW6       29.92S VSB 1   WCI  19
WORLAND        CLOUDY    25  18  74 CALM      29.92R
SHERIDAN       FLURRIES  32  29  88 CALM      29.82R
BUFFALO        FLURRIES  31  26  82 CALM      29.80F
GILLETTE       LGT SNOW  28  24  85 W9        29.81R FOG     WCI  19
HULETT         CLOUDY    30  19  64 MISG        N/A
NEWCASTLE      FAIR      28  18  64 E5        29.87R WCI  23

$$
WYZ014>020-022>026-101>103-251500-
CENTRAL WYOMING

CITY           SKY/WX    TMP DP  RH WIND       PRES   REMARKS
BIG PINEY      CLOUDY    23  14  68 E5        30.12S WCI  17
PINEDALE       LGT SNOW  23  23 100 W12       30.11S WCI  12
DUBOIS         CLOUDY    27  19  74 NW29G39   29.92F WCI  11
LANDER         CLOUDY    26  11  52 SW3       29.92R
RIVERTON       CLOUDY    33  17  51 W25G31    29.92S WCI  20
CASPER         CLOUDY    29  13  51 SW18      29.90R WCI  16
DOUGLAS        CLOUDY   N/A N/A N/A W15G23    29.85F

$$
WYZ021-027>030-104>119-251500-
SOUTHERN WYOMING

CITY           SKY/WX    TMP DP  RH WIND       PRES   REMARKS
EVANSTON       MOCLDY    25  16  68 SW24      30.22F WCI   9
FORT BRIDGER   PTSUNNY   28  17  61 W28G37    30.20F WCI  13
ROCK SPRINGS   CLOUDY    24  13  62 W21G31    30.11F WCI   9
DIXON          CLOUDY    26  12  55 SW21G30   30.19F WCI  12
RAWLINS        CLOUDY    23  11  60 W24G37    30.00F WCI   7
SARATOGA       CLOUDY    25  16  68 SW9       30.07F WCI  15
LARAMIE        CLOUDY    23  13  65 SW17      29.95F WCI   9
CHEYENNE       CLOUDY    29  13  51 W32G48    29.89F WCI  13
TORRINGTON     CLOUDY    33  14  45 CALM      29.90F
PINE BLUFFS    PTSUNNY   23  14  68 S14       29.95F WCI  11

$$


USA.gov is the U.S. government's official web portal to all federal, state and local government web resources and services.